Regional Weather Roundup
Issued by NWS

Home | Current Version | Previous Version | Text Only | Print | Product List | Glossary Off
Versions: 1 2 3 4 5 6 7 8 9 10 11 12 13 14 15 16 17 18 19 20 21 22 23 24 25 26 27 28 29 30 31 32 33 34 35 36 37 38 39 40 41 42 43 44 45 46 47 48 49 50

000
ASUS45 KPSR 260000
RWRAZ

ARIZONA REGIONAL HOURLY WEATHER ROUNDUP
NATIONAL WEATHER SERVICE PHOENIX AZ
500 PM MST SAT APR 25 2015

NOTE: FAIR INDICATES FEW OR NO CLOUDS BELOW 12,000 FEET WITH NO
SIGNIFICANT WEATHER AND/OR OBSTRUCTIONS TO VISIBILITY.

AZZ001>003-036-260100-
NORTHWEST ARIZONA

CITY           SKY/WX    TMP DP  RH WIND       PRES   REMARKS
KINGMAN        CLOUDY    57  40  52 SW16      29.75F
6HR MIN TEMP:  52; 6HR MAX TEMP:  65; 6HR PCP: TRACE;

$$

AZZ004>008-015-016-018-260100-
NORTH CENTRAL ARIZONA

CITY           SKY/WX    TMP DP  RH WIND       PRES   REMARKS
GRAND CANYON   CLOUDY    42  39  89 SW13      29.82F
6HR MIN TEMP:  39; 6HR MAX TEMP:  53; 6HR PCP:  0.09;

WILLIAMS       LGT RAIN  41  37  87 SW17G30   29.89F
PRESCOTT       LGT RAIN  52  37  56 S15G30    29.81F
6HR MIN TEMP:  52; 6HR MAX TEMP:  57; 6HR PCP:  0.01;

FLAGSTAFF      NOT AVBL
PAYSON         CLOUDY    55  37  50 SW9G15    29.84F
PAGE           CLOUDY    55  41  59 W8        29.73R
6HR MIN TEMP:  55; 6HR MAX TEMP:  67;

$$

AZZ009>014-017-260100-
NORTHEAST ARIZONA

CITY           SKY/WX    TMP DP  RH WIND       PRES   REMARKS
WINSLOW        NOT AVBL
SAINT JOHNS    MOSUNNY   61  25  25 SW23G30   29.81F
6HR MIN TEMP:  61; 6HR MAX TEMP:  68;

WINDOW ROCK    LGT RAIN  54  31  41 SW12G18   29.84R
6HR MIN TEMP:  53; 6HR MAX TEMP:  61; 6HR PCP: TRACE;

SHOW LOW       MOSUNNY   54  27  35 SW18G38   29.86F
$$

AZZ023-260100-
GREATER PHOENIX AREA

CITY           SKY/WX    TMP DP  RH WIND       PRES   REMARKS
PHOENIX        CLOUDY    78  44  29 W17       29.71F
6HR MIN TEMP:  73; 6HR MAX TEMP:  81;

GLENDALE       PTSUNNY   75  37  25 SW23      29.75S
DEER VALLEY    CLOUDY    73  41  31 SW18G26   29.73S
6HR MIN TEMP:  68; 6HR MAX TEMP:  77;

SCOTTSDALE     CLOUDY    74  42  31 W15G23    29.75S
6HR MIN TEMP:  70; 6HR MAX TEMP:  78;

MESA-FALCON    PTSUNNY   75  39  27 MISG      29.72F
MESA-GATEWAY   PTSUNNY   77  39  25 SW14G21   29.75F
CHANDLER       CLOUDY    77  39  25 SW20      29.73F
$$

AZZ027-028-260100-
SOUTHWEST MARICOPA COUNTY AND PINAL COUNTY

CITY           SKY/WX    TMP DP  RH WIND       PRES   REMARKS
CASA GRANDE    CLOUDY    77  37  24 SW14G22   29.73S
6HR MIN TEMP:  72; 6HR MAX TEMP:  81;

$$

AZZ503-504-507>509-260100-
SOUTHEAST ARIZONA

CITY           SKY/WX    TMP DP  RH WIND       PRES   REMARKS
TUCSON         MOSUNNY   79  30  16 SW17G23   29.80F
6HR MIN TEMP:  71; 6HR MAX TEMP:  82;

NOGALES        SUNNY     74  30  19 SW20G32   29.86F
6HR MIN TEMP:  69; 6HR MAX TEMP:  78;

SIERRA VISTA   SUNNY     72  19  14 W21G33    29.88F
SAFFORD        PTSUNNY   76  28  17 W16G38    29.75F
6HR MIN TEMP:  68; 6HR MAX TEMP:  80;

$$

AZZ020-021-025-026-031-260100-
SOUTHWEST ARIZONA

CITY           SKY/WX    TMP DP  RH WIND       PRES   REMARKS
YUMA           CLOUDY    74  44  34 NW21G30   29.77F BLWGDUST
6HR MIN TEMP:  73; 6HR MAX TEMP:  77;

$$

CAZ031-033-041-043-047-048-061-260100-
SOUTHERN CALIFORNIA

CITY           SKY/WX    TMP DP  RH WIND       PRES   REMARKS
DOWNTOWN L.A.  PTSUNNY   65  55  70 W8G21     29.86F
6HR MIN TEMP:  62; 6HR MAX TEMP:  66; 6HR PCP: TRACE;

L.A. AIRPORT   PTSUNNY   63  57  81 SW21      29.87F
6HR MIN TEMP:  59; 6HR MAX TEMP:  63; 6HR PCP:  0.01;

SAN DIEGO      PTSUNNY   65  52  62 W16G25    29.97S
6HR MIN TEMP:  63; 6HR MAX TEMP:  67;

BURBANK        CLOUDY    59  55  87 E5        29.87F
6HR MIN TEMP:  57; 6HR MAX TEMP:  62; 6HR PCP:  0.15;

ONTARIO        RAIN      56  54  93 CALM      29.87F FOG
6HR MIN TEMP:  55; 6HR MAX TEMP:  62; 6HR PCP:  0.37;

RIVERSIDE      LGT RAIN  58  55  90 W15G25    29.87F
6HR MIN TEMP:  57; 6HR MAX TEMP:  65; 6HR PCP:  0.12;

PALM SPRINGS   SUNNY     72  44  36 E15G25    29.74F
6HR MIN TEMP:  70; 6HR MAX TEMP:  76;

EL CENTRO NAS  PTSUNNY   71  44  37 SW33G41   29.83S
6HR MIN TEMP:  71; 6HR MAX TEMP:  76;

IMPERIAL       PTSUNNY   72  46  39 W29G40    29.78F
6HR MIN TEMP:  70; 6HR MAX TEMP:  73;

BLYTHE         CLOUDY    73  45  36 W20G30    29.72F
6HR MIN TEMP:  72; 6HR MAX TEMP:  79;

$$

NVZ020-UTZ003-260100-
SOUTHERN NEVADA-UTAH

CITY           SKY/WX    TMP DP  RH WIND       PRES   REMARKS
LAS VEGAS      NOT AVBL
SALT LAKE CITY RAIN      47  42  83 S12       29.72R
6HR MIN TEMP:  47; 6HR MAX TEMP:  59; 6HR PCP:  0.03;

$$

NMZ009-TXZ055-260100-
NEW MEXICO-WEST TEXAS

CITY           SKY/WX    TMP DP  RH WIND       PRES   REMARKS
ALBUQUERQUE    PTSUNNY   69  22  16 SW10      29.78F
6HR MIN TEMP:  57; 6HR MAX TEMP:  70;

EL PASO        MOSUNNY   79  12   8 W21       29.79F
6HR MIN TEMP:  72; 6HR MAX TEMP:  80;

$$


........................KEY........................
SKY/WX - SKY CONDITION/WEATHER
TMP    - TEMPERATURE IN FAHRENHEIT
DP     - DEW POINT IN FAHRENHEIT
RH     - RELATIVE HUMIDITY IN PERCENT
WIND   - DIRECTION AND SPEED IN MILES PER HOUR (MPH)
VRB    - VARIABLE WIND DIRECTION
PRES   - MEAN SEA LEVEL PRESSURE IN INCHES OF MERCURY
         F - FALLING PRESSURE   R - RISING PRESSURE
         S - STEADY PRESSURE
VSB    - VISIBILITY IN MILES
HX     - HEAT INDEX IN FAHRENHEIT
WCI    - WIND CHILL INDEX IN FAHRENHEIT
TC     - TEMPERATURE IN CELSIUS WHICH IS ALSO KNOWN AS
         TEMPERATURE IN CENTIGRADE
AFB    - AIR FORCE BASE
         LUKE AFB IS LUKE AIR FORCE BASE
         DAVIS-MONTHAN IS DAVIS-MONTHAN AIR FORCE BASE
NAS    - NAVAL AIR STATION
         EL CENTRO NAS IS EL CENTRO NAVAL AIR STATION
N/A    - NOT AVAILABLE



USA.gov is the U.S. government's official web portal to all federal, state and local government web resources and services.